CW6242 Weather Reports


time (UTC)temp
C
wind
direction
speed
KPH
gust
KPH
rain 1hr
cm
rain 24hr
cm
rain mn
cm
humidity
%
barometer
mb
20260504141018 18 45 1.6 11.3 0.00 0.00 0.00 55 1017.3
20260504081057 18 0.0 0.0 0.00 0.00 0.00 62 1019.8
20260504050017 13 0.0 4.8 0.00 0.00 0.00 62 1019.2
20260504045016 13 0.0 0.0 0.00 0.00 0.00 61 1019.2
20260504044016 13 0.0 0.0 0.00 0.00 0.00 62 1019.0
20260504043036 13 0.0 0.0 0.00 0.00 0.00 62 1018.8
20260504042037 13 0.0 0.0 0.00 0.00 0.00 62 1018.7
20260504041036 13 0.0 0.0 0.00 0.00 0.00 60 1018.7
20260504040017 13 0.0 0.0 0.00 0.00 0.00 61 1018.5
20260504035016 13 0.0 0.0 0.00 0.00 0.00 62 1018.5
20260504034016 13 0.0 0.0 0.00 0.00 0.00 63 1018.6
20260504033016 13 0.0 0.0 0.00 0.00 0.00 63 1018.6
20260504032016 13 0.0 0.0 0.00 0.00 0.00 61 1018.7
20260504031016 13 0.0 0.0 0.00 0.00 0.00 61 1018.6
20260504030016 13 0.0 0.0 0.00 0.00 0.00 63 1018.6
20260504025016 13 0.0 0.0 0.00 0.00 0.00 65 1018.7
20260504024036 13 0.0 0.0 0.00 0.00 0.00 66 1018.8
20260504023016 12 0.0 0.0 0.00 0.00 0.00 67 1018.9
20260504022017 12 0.0 0.0 0.00 0.00 0.00 68 1018.9
20260504021016 12 0.0 0.0 0.00 0.00 0.00 70 1018.9
20260504020136 12 0.0 0.0 0.00 0.00 0.00 71 1019.0
20260504015016 12 0.0 0.0 0.00 0.00 0.00 72 1018.9
20260504014016 12 0.0 0.0 0.00 0.00 0.00 72 1018.9
20260504013016 12 0.0 0.0 0.00 0.00 0.00 73 1018.9
20260504012016 12 0.0 0.0 0.00 0.00 0.00 73 1018.9
20260504011016 12 0.0 0.0 0.00 0.00 0.00 72 1019.0
20260504010016 12 0.0 1.6 0.00 0.00 0.00 72 1018.9
20260504005016 12 0.0 0.0 0.00 0.00 0.00 71 1018.9
20260504004036 12 0.0 0.0 0.00 0.00 0.00 71 1019.0
20260504003056 12 0.0 0.0 0.00 0.00 0.00 70 1019.0
20260504002016 13 0.0 0.0 0.00 0.00 0.00 72 1019.1
20260504001136 13 0.0 0.0 0.00 0.00 0.00 72 1019.1
20260504000016 13 0.0 0.0 0.00 0.00 0.00 72 1019.1
20260503235016 13 0.0 0.0 0.00 0.00 0.00 72 1019.1
20260503234036 13 0.0 0.0 0.00 0.00 0.00 71 1019.2
20260503233016 13 0.0 0.0 0.00 0.00 0.00 69 1019.2
20260503232016 12 0.0 0.0 0.00 0.00 0.00 67 1019.3
20260503231018 12 0.0 0.0 0.00 0.00 0.00 68 1019.5
20260503230018 12 0.0 0.0 0.00 0.00 0.00 67 1019.5
20260503225018 12 0.0 0.0 0.00 0.00 0.00 67 1019.7
20260503224018 12 0.0 0.0 0.00 0.00 0.00 66 1019.8
20260503223018 12 0.0 0.0 0.00 0.00 0.00 67 1019.7
20260503222018 13 0.0 0.0 0.00 0.00 0.00 71 1019.8
20260503221018 13 0.0 0.0 0.00 0.00 0.00 69 1019.9
20260503220017 13 0.0 0.0 0.00 0.00 0.00 67 1019.9
20260503215017 13 0.0 0.0 0.00 0.00 0.00 64 1019.8
20260503214017 12 0.0 1.6 0.00 0.00 0.00 65 1019.7
20260503213037 12 0.0 1.6 0.00 0.00 0.00 64 1019.7
20260503212017 13 0.0 0.0 0.00 0.00 0.00 64 1019.8
20260503211017 13 0.0 0.0 0.00 0.00 0.00 67 1019.9
20260503210017 13 0.0 0.0 0.00 0.00 0.00 68 1019.8
20260503205016 13 0.0 0.0 0.00 0.00 0.00 67 1019.8
20260503204016 13 0.0 0.0 0.00 0.00 0.00 65 1019.9
20260503203017 13 0.0 0.0 0.00 0.00 0.00 64 1019.8
20260503202037 13 0.0 0.0 0.00 0.00 0.00 62 1019.5
20260503201017 14 0.0 0.0 0.00 0.00 0.00 60 1019.6
20260503200017 14 0.0 0.0 0.00 0.00 0.00 58 1019.7
20260503195017 14 0.0 0.0 0.00 0.00 0.00 57 1019.6
20260503194017 14 0.0 0.0 0.00 0.00 0.00 57 1019.6
20260503193017 14 0.0 4.8 0.00 0.00 0.00 58 1019.7
20260503192057 14 0.0 0.0 0.00 0.00 0.00 55 1019.7
20260503191016 15 0.0 0.0 0.00 0.00 0.00 53 1019.6
20260503190036 14 0.0 0.0 0.00 0.00 0.00 54 1019.4
20260503185017 14 0.0 8.0 0.00 0.00 0.00 54 1019.2
20260503184036 14 113 1.6 14.5 0.00 0.00 0.00 53 1018.9
20260503183017 14 0.0 1.6 0.00 0.00 0.00 49 1019.0
20260503182017 14 0.0 4.8 0.00 0.00 0.00 47 1019.1
20260503181017 14 113 1.6 16.1 0.00 0.00 0.00 49 1019.0
20260503180037 14 0.0 0.0 0.00 0.00 0.00 54 1019.1
20260503175016 14 0.0 0.0 0.00 0.00 0.00 64 1019.1
20260503174016 14 0.0 8.0 0.00 0.00 0.00 64 1019.0
20260503173016 14 0 1.6 12.9 0.00 0.00 0.00 62 1018.8
20260503172016 15 0.0 16.1 0.00 0.00 0.00 60 1018.7
20260503171017 15 0.0 14.5 0.00 0.00 0.00 58 1018.7